Home > Weather > Lexington > Past weeks

Flag for USA Past Weather in Lexington, North Carolina, USA — Yesterday and Last 2 Weeks

Now
66 °F

Sunny.


Feels Like: 66 °F
Forecast: 64 / 83 °F
Wind: No wind

Location: Davidson County Airport

Current Time: May 31, 2016 at 8:02:17 AM

Latest Report: May 31, 2016 at 7:10 AM


Visibility: 10 mi

Pressure: 29.98 "Hg

Humidity: 94%

Dew Point: 64 °F

Location of LexingtonLocation

Past Weather in Lexington — Graph

°F

Lexington Temperature Yesterday

Maximum temperature yesterday: 84 °F (at 4:50 PM)
Minimum temperature yesterday: 64 °F (at 4:30 AM)
Average temperature yesterday: 72 °F

High & Low Weather Summary for the Past Weeks

 TemperatureHumidityPressure
High85 °F (May 26, 3:50 PM)99% (May 21, 12:10 AM)30.29 "Hg (May 21, 12:10 AM)
Low40 °F (May 16, 6:10 AM)36% (May 25, 3:50 PM)29.84 "Hg (May 21, 7:50 PM)
Average66 °F78%30.08 "Hg
* Reported May 16 6:10 AM — May 31 6:30 AM, Lexington, Weather by CustomWeather, © 2016

Note: Actual official high and low records may vary slightly from our data, if they occured in-between our weather recording intervals... More about our weather records

Advertising

Lexington Weather History for the Previous 24 Hours

Scroll right to see more
 ConditionsComfort  
Time TempWeatherWind HumidityBarometerVisibility
6:30 AM
Tue, May 31
64 °FClear.No wind99%29.96 "Hg7 mi
6:10 AM64 °FClear.No wind98%29.96 "Hg7 mi
5:50 AM65 °FClear.No wind99%29.95 "Hg10 mi
5:30 AM64 °FFog.No wind99%29.95 "Hg5 mi
5:10 AM64 °FFog.No wind99%29.95 "Hg5 mi
4:50 AM64 °FFog.No wind98%29.95 "Hg5 mi
4:30 AM65 °FFog.No wind99%29.95 "Hg5 mi
4:10 AM65 °FClear.No wind99%29.95 "Hg7 mi
3:50 AM65 °FPassing clouds.No wind99%29.95 "Hg7 mi
3:30 AM65 °FPassing clouds.No wind98%29.95 "Hg10 mi
3:10 AM67 °FPassing clouds.No wind97%29.95 "Hg10 mi
2:50 AM67 °FPartly cloudy.No wind97%29.95 "Hg10 mi
2:30 AM67 °FPassing clouds.No wind98%29.95 "Hg10 mi
2:10 AM66 °FPassing clouds.No wind98%29.95 "Hg7 mi
1:50 AM66 °FPassing clouds.No wind99%29.96 "Hg10 mi
1:30 AM66 °FClear.No wind98%29.96 "Hg10 mi
12:50 AM67 °FClear.No wind97%29.97 "Hg10 mi
12:30 AM67 °FClear.No wind96%29.97 "Hg10 mi
12:10 AM68 °FClear.No wind96%29.97 "Hg10 mi
11:50 PM
Mon, May 30
68 °FClear.No wind95%29.97 "Hg10 mi
11:30 PM69 °FClear.No wind93%29.97 "Hg10 mi
11:10 PM70 °FClear.No wind89%29.97 "Hg10 mi
10:50 PM71 °FClear.No wind87%29.97 "Hg10 mi
10:30 PM72 °FPassing clouds.No wind84%29.98 "Hg10 mi
10:10 PM73 °FPassing clouds.5 mph82%29.98 "Hg10 mi
9:50 PM74 °FPassing clouds.6 mph81%29.96 "Hg10 mi
9:30 PM74 °FSunny.3 mph80%29.96 "Hg10 mi
9:10 PM75 °FSunny.6 mph76%29.96 "Hg10 mi
8:50 PM75 °FScattered clouds.6 mph77%29.95 "Hg10 mi
8:10 PM78 °FSunny.3 mph68%29.95 "Hg10 mi
7:50 PM80 °FScattered clouds.8 mph64%29.94 "Hg10 mi
7:30 PM81 °FSunny.6 mph62%29.94 "Hg10 mi
7:10 PM83 °FScattered clouds.6 mph56%29.93 "Hg10 mi
6:50 PM83 °FScattered clouds.5 mph57%29.92 "Hg10 mi
6:30 PM83 °FSunny.3 mph54%29.92 "Hg10 mi
6:10 PM83 °FSunny.6 mph55%29.91 "Hg10 mi
5:50 PM83 °FScattered clouds.No wind55%29.92 "Hg10 mi
5:30 PM82 °FScattered clouds.No wind59%29.92 "Hg10 mi
5:10 PM82 °FBroken clouds.3 mph57%29.93 "Hg10 mi
4:50 PM84 °FScattered clouds.No wind55%29.93 "Hg10 mi
4:30 PM83 °FSunny.8 mph55%29.93 "Hg10 mi
4:10 PM83 °FSunny.6 mph58%29.93 "Hg10 mi
3:50 PM82 °FSunny.6 mph58%29.93 "Hg10 mi
3:30 PM83 °FScattered clouds.8 mph59%29.94 "Hg10 mi
3:10 PM82 °FScattered clouds.8 mph60%29.95 "Hg10 mi
2:50 PM80 °FBroken clouds.5 mph63%29.96 "Hg10 mi
2:30 PM80 °FScattered clouds.6 mph63%29.97 "Hg10 mi
2:10 PM80 °FScattered clouds.5 mph63%29.98 "Hg10 mi
1:50 PM79 °FPartly sunny.6 mph68%29.98 "Hg10 mi
1:30 PM78 °FBroken clouds.3 mph70%29.99 "Hg10 mi
12:50 PM75 °FBroken clouds.5 mph74%30.00 "Hg10 mi
12:30 PM75 °FCloudy.5 mph76%30.02 "Hg10 mi
12:10 PM74 °FCloudy.3 mph78%30.02 "Hg10 mi
11:50 AM74 °FMostly cloudy.3 mph78%30.02 "Hg10 mi
11:30 AM74 °FMostly cloudy.No wind75%30.02 "Hg10 mi
11:10 AM74 °FPartly sunny.3 mph74%30.02 "Hg10 mi
10:50 AM74 °FScattered clouds.6 mph77%30.02 "Hg10 mi
10:30 AM73 °FPartly sunny.6 mph77%30.02 "Hg10 mi
10:10 AM71 °FPartly sunny.No wind80%30.02 "Hg10 mi
9:50 AM70 °FPartly sunny.6 mph81%30.03 "Hg10 mi
9:30 AM69 °FBroken clouds.3 mph84%30.03 "Hg10 mi
9:10 AM70 °FMostly cloudy.5 mph82%30.03 "Hg10 mi
8:50 AM68 °FOvercast.5 mph85%30.04 "Hg10 mi
8:30 AM67 °FOvercast.No wind87%30.03 "Hg10 mi
8:10 AM67 °FOvercast.3 mph87%30.03 "Hg10 mi
Weather by CustomWeather, © 2016

See weather overviewHow to use our weather pages